Terminal Aerodrome Forecast
Issued by NWS

Current Version | Previous Version | Text Only | Print | Product List | Glossary On
Versions: 1 2 3 4 5 6 7 8 9 10 11 12 13 14 15 16 17 18 19 20 21 22 23 24 25
000
FTUS45 KCYS 122320
TAFLAR
TAF
KLAR 122320Z 1300/1324 03006KT P6SM SCT080
     FM130500 23012KT P6SM SCT080
     FM131600 27025G38KT P6SM SCT080=

USA.gov is the U.S. government's official web portal to all federal, state and local government web resources and services.